GFSNGP_con_lsi_021.txt.gz
Lid_Strength_Index
13 12 13 13 14 14 14 13 16 14 14 12 10 13 13 13 10 10 11 12 13 13 13 13 13 12 12 12 12 12 12 13 13 13 13 13 13 13 14 13 13 14 14 14
18 13 13 15 14 14 14 14 14 13 14 10 14 13 12 13 12 13 13 12 13 12 12 12 12 12 11 11 11 11 12 12 11 11 11 12 12 12 12 12 13 13 13 14
22 15 16 22 17 15 14 13 14 17 14 15 14 13 14 14 14 13 13 12 12 12 11 11 11 10 10 10 11 12 13 12 12 12 12 11 11 12 12 13 13 13 14 14
24 23 28 17 15 14 15 15 16 15 17 16 14 14 13 13 13 12 11 11 10 10 10 10 10 10 10 10 12 11 12 13 13 12 13 13 13 14 14 14 14 14 14 14
23 28 20 17 15 15 15 17 15 16 15 14 14 15 15 12 12 11 11 10 10 9 9 10 11 11 11 12 12 12 13 13 13 14 16 16 17 17 16 17 17 17 16 16
28 25 27 18 14 13 14 20 17 17 16 16 14 19 17 11 10 9 9 9 9 9 10 11 13 12 13 13 15 15 14 14 15 16 18 18 18 19 19 19 19 19 19 19
19 24 22 16 15 13 23 19 18 16 15 14 15 14 11 10 10 9 9 9 10 11 12 13 13 13 15 15 16 15 16 16 17 18 19 20 20 20 21 21 21 22 22 21
27 29 25 14 15 17 15 13 13 13 12 12 11 10 10 9 10 10 10 11 11 12 13 13 14 15 16 16 15 17 18 19 20 21 21 20 22 21 22 22 23 23 23 22
19 20 14 13 13 11 11 12 11 11 10 9 10 10 9 10 10 10 10 11 12 14 15 14 16 17 18 17 17 18 22 23 22 21 21 20 22 22 23 23 23 23 23 23
18 15 14 12 11 10 9 9 9 9 9 9 10 10 10 10 10 11 13 14 15 17 18 19 18 17 19 19 18 24 25 22 21 21 21 22 21 22 23 24 24 24 24 23
17 13 13 12 10 9 9 8 9 9 9 9 9 10 10 10 11 12 13 15 16 18 18 18 18 19 21 19 22 23 21 20 20 21 22 22 21 22 22 22 21 21 20 19
16 11 11 10 9 8 8 8 9 9 10 9 10 10 11 12 13 13 15 16 17 18 19 20 22 21 21 23 25 24 21 20 21 21 22 22 22 22 18 17 16 16 15 16
11 9 8 7 7 8 9 9 9 9 9 9 11 12 13 14 14 15 17 17 17 19 20 22 23 22 22 23 26 25 22 21 21 22 22 23 23 23 24 20 16 16 16 15
8 8 9 9 9 8 8 9 10 12 13 12 13 16 16 16 17 18 18 18 20 21 23 25 25 24 22 24 26 26 24 22 22 23 22 23 23 22 22 23 23 22 17 16
9 8 7 8 10 11 12 13 15 14 15 16 17 17 18 19 19 18 18 20 22 24 23 25 26 24 24 25 25 26 23 22 23 23 22 22 22 22 22 22 22 22 20 18
8 12 13 11 11 13 14 15 15 15 16 17 19 19 18 19 21 21 21 22 26 25 24 26 24 23 24 27 26 24 23 22 21 23 23 23 23 23 22 22 22 22 22 22
15 15 19 17 15 15 15 16 16 16 17 18 20 21 23 25 25 23 22 24 25 24 25 26 24 25 27 26 27 23 23 23 24 24 25 24 24 24 23 23 22 23 22 21
15 16 16 16 16 16 18 18 18 19 22 21 21 23 25 27 26 26 26 29 29 28 26 25 26 26 28 28 27 23 25 25 25 26 24 24 24 24 23 23 23 23 22 21
20 18 18 18 18 19 19 21 22 22 23 23 25 26 27 27 28 30 32 33 31 31 25 29 20 25 28 26 20 24 26 26 26 26 25 25 25 25 24 23 23 22 22 22
22 22 22 23 24 24 24 25 26 27 29 29 31 32 32 31 33 34 35 33 28 24 27 28 29 28 27 25 20 25 28 28 28 28 27 26 26 26 25 24 24 23 23 22
25 25 25 25 26 27 27 28 29 30 30 31 31 32 32 31 35 36 35 32 27 28 28 25 27 25 23 21 22 26 29 29 31 30 31 28 28 27 26 25 24 23 23 22
28 27 26 27 28 30 33 33 32 32 31 33 33 34 35 31 34 33 30 27 26 23 23 22 21 21 19 20 23 27 28 29 32 33 32 32 31 29 28 27 26 24 24 23
30 30 28 29 29 32 35 35 34 33 32 33 32 32 31 27 28 27 25 25 23 20 20 21 20 18 19 22 24 28 29 30 31 31 32 32 31 31 30 28 27 26 25 24
35 33 34 36 37 35 31 32 35 34 33 33 32 29 28 28 29 23 21 19 19 19 21 20 19 17 21 24 27 27 29 32 32 34 33 29 32 31 31 30 28 26 26 25
31 33 37 35 34 32 32 33 33 32 32 32 31 28 27 23 23 22 21 20 18 19 21 19 19 20 24 28 28 29 30 32 34 35 35 35 35 34 33 32 30 28 27 27
34 29 32 33 32 33 31 31 31 32 32 31 31 24 23 22 20 20 20 20 20 20 21 22 23 24 26 27 28 29 29 30 30 32 33 35 36 34 33 32 31 30 29 29
30 30 33 32 33 33 33 32 32 31 32 31 25 23 22 21 21 21 21 21 21 22 22 23 24 25 26 27 28 28 29 30 29 30 34 34 34 35 34 33 32 32 30 29

GFSNGP_con_lsi_024.txt.gz
Lid_Strength_Index
15 13 13 14 14 15 15 15 16 16 15 13 12 12 12 11 12 10 10 13 13 13 13 14 13 13 12 12 12 12 13 13 13 13 13 13 13 13 13 13 13 13 14 14
19 15 14 16 15 15 14 13 13 13 14 10 11 13 13 13 13 11 11 12 13 13 13 13 13 13 12 12 12 12 12 13 12 12 12 12 12 12 12 13 13 14 14 14
21 18 18 23 19 15 14 14 14 16 14 15 13 13 13 14 13 14 14 13 13 13 13 13 13 12 12 12 12 13 14 14 13 13 13 13 13 14 14 15 15 15 15 15
24 25 29 18 16 15 15 14 15 15 17 15 13 14 14 14 14 13 13 12 13 13 13 12 12 12 12 12 12 12 14 15 15 14 15 15 15 16 16 16 17 17 17 17
23 27 21 17 16 16 16 17 16 15 16 14 14 15 16 13 13 13 13 12 12 11 11 11 12 12 12 12 12 13 14 14 15 16 18 17 18 18 18 18 19 19 18 19
27 27 26 19 15 13 14 20 18 17 16 16 15 20 17 13 12 12 11 11 11 10 11 12 13 12 13 14 15 15 15 15 16 17 20 19 19 20 19 20 19 19 20 20
19 26 23 16 15 13 22 18 18 17 15 15 17 14 13 12 12 11 10 10 10 11 12 12 13 14 15 15 16 16 16 17 18 18 19 20 20 20 20 21 21 22 21 21
24 23 24 14 14 17 14 13 13 13 13 14 13 12 12 12 11 10 10 10 10 12 13 14 14 15 16 17 16 18 19 20 20 21 21 20 22 21 22 22 23 23 23 22
19 19 13 13 12 11 12 13 12 13 12 12 12 12 11 11 10 10 10 10 11 13 14 14 16 17 18 17 18 19 23 25 24 23 21 20 22 22 22 22 23 23 22 23
18 15 14 12 11 12 11 11 11 11 11 11 11 11 10 10 10 10 11 13 15 16 17 17 17 16 19 20 20 26 29 25 22 22 21 22 21 20 22 23 23 23 23 22
17 14 14 13 12 11 11 11 10 10 10 10 10 10 10 10 11 11 13 14 16 16 17 17 17 18 20 20 24 25 25 22 21 21 23 21 20 21 21 19 19 20 18 18
16 12 12 12 11 10 10 10 10 9 10 10 10 10 10 11 11 13 14 16 17 18 18 19 20 20 20 24 26 27 23 21 21 20 20 20 21 21 17 15 14 14 14 15
11 9 10 9 9 9 9 9 9 9 9 9 10 10 12 13 14 15 16 17 18 18 19 20 21 21 24 25 27 27 26 22 21 20 21 22 22 23 24 20 15 15 15 14
9 9 10 9 10 9 9 9 10 12 12 11 11 15 15 15 17 18 18 19 20 20 21 23 24 23 24 27 29 29 27 23 22 22 22 22 23 22 23 23 23 22 18 16
8 8 7 7 10 10 11 13 14 13 14 17 17 16 17 18 19 18 19 21 22 25 23 23 24 23 24 27 27 28 25 24 24 22 21 22 23 23 23 23 23 23 22 19
9 12 12 11 9 11 14 16 14 14 16 17 18 18 18 19 20 22 23 26 26 26 25 25 24 24 27 28 28 29 27 23 21 25 23 24 24 24 24 24 23 23 23 23
13 12 18 17 14 14 15 16 15 16 16 17 19 21 22 25 26 27 28 29 29 27 26 27 25 25 28 29 28 27 27 25 23 25 26 26 25 25 24 24 24 24 23 21
12 14 15 14 14 15 17 18 18 19 21 21 22 23 25 27 27 29 30 33 32 30 28 26 27 27 30 30 30 28 28 29 28 26 25 26 27 25 25 25 25 24 23 22
18 17 18 17 18 18 19 21 22 22 23 23 24 24 27 29 30 31 35 35 34 33 26 30 22 27 30 29 25 27 28 28 25 25 26 27 27 29 28 27 26 25 24 24
22 22 22 23 24 24 24 25 25 26 30 29 31 32 32 33 35 35 37 33 29 26 29 31 31 30 29 29 22 28 27 26 24 25 29 29 29 29 29 28 27 27 27 26
24 24 25 25 26 27 27 28 28 29 31 32 31 32 33 33 36 37 35 33 27 31 30 27 28 27 28 25 24 26 25 24 25 27 31 31 32 32 30 32 31 29 27 26
29 28 27 27 28 31 34 34 32 32 32 33 34 35 35 32 35 36 31 28 26 26 27 24 23 23 22 18 22 23 24 25 26 29 31 33 35 34 33 31 31 29 28 28
30 29 28 29 30 32 37 36 34 33 32 33 31 31 29 28 29 29 28 28 27 25 22 22 20 18 18 21 22 23 24 25 27 28 30 32 33 35 33 32 31 30 30 28
30 29 33 37 37 35 32 33 35 35 35 35 34 32 30 30 30 29 25 22 20 19 21 21 20 16 21 22 23 24 25 27 28 30 31 30 36 35 35 33 32 31 30 29
30 32 35 36 32 32 34 34 34 34 34 34 34 30 30 26 26 27 26 24 19 19 20 19 17 18 22 23 24 25 27 29 30 32 32 36 36 36 36 35 34 33 32 31
32 29 31 30 29 29 29 31 31 34 34 32 32 31 29 26 26 24 22 20 20 20 20 20 21 22 22 23 25 26 27 27 27 29 32 33 34 34 34 33 33 32 32 32
30 29 29 28 29 30 34 33 33 32 33 35 32 30 26 28 25 21 20 20 21 21 21 21 22 22 24 25 26 26 27 27 27 29 32 34 34 34 33 32 33 33 32 31

GFSNGP_con_lsi_030.txt.gz
Lid_Strength_Index
16 17 16 16 16 17 17 15 16 15 16 15 13 13 13 13 13 13 13 13 14 13 14 14 14 14 14 14 14 13 14 14 14 14 15 15 16 16 17 16 17 16 16 16
19 17 16 18 17 17 15 16 16 16 17 14 13 13 14 14 13 14 13 12 12 12 12 12 13 13 13 14 13 13 14 14 15 15 15 16 17 17 16 16 16 16 16 16
18 20 19 19 18 16 16 15 14 17 13 16 16 15 15 15 15 14 12 11 11 12 12 11 12 12 13 13 13 15 15 17 17 17 17 17 17 16 16 17 16 17 17 17
22 21 23 19 20 17 14 14 14 16 18 17 16 16 15 15 14 14 13 12 11 11 13 12 13 13 13 13 15 15 16 18 17 17 18 17 17 17 17 17 18 18 18 18
21 22 20 19 19 20 18 18 18 16 16 17 16 17 17 15 14 13 13 13 13 13 13 14 13 13 14 15 15 16 16 16 17 17 18 18 20 19 19 19 19 20 18 19
23 23 23 22 19 17 17 22 19 18 17 18 17 21 18 15 14 13 13 13 12 12 13 13 13 14 15 16 16 17 16 15 16 17 20 21 19 20 20 21 19 18 19 19
21 21 21 19 19 17 22 18 21 19 17 17 18 16 14 14 14 13 12 12 12 13 13 13 14 15 16 16 16 16 16 17 17 18 20 21 21 21 23 23 20 22 21 21
21 22 22 18 17 18 16 16 15 16 15 14 14 13 13 13 13 13 13 12 12 13 13 14 15 15 16 16 16 17 18 18 19 20 21 20 26 25 25 25 25 24 24 22
18 19 17 15 14 13 13 14 14 14 13 13 13 13 13 13 13 13 12 12 12 13 14 15 16 14 15 16 17 18 20 20 22 22 20 20 25 23 24 26 25 23 21 21
18 18 16 14 12 12 12 12 12 12 13 13 13 13 13 13 13 13 13 13 14 16 16 15 16 15 17 17 18 22 24 21 20 21 20 21 20 20 24 25 23 22 22 21
19 16 15 13 12 11 11 12 12 12 12 12 12 13 13 13 13 13 12 14 15 14 13 14 17 18 19 19 20 22 23 21 20 20 21 21 21 20 20 20 19 21 18 16
19 14 13 12 11 11 12 11 12 12 13 13 12 12 12 12 12 12 12 15 15 15 15 16 17 19 21 22 22 22 21 20 20 20 20 20 20 21 16 13 11 10 10 12
13 11 11 11 11 11 11 12 12 12 12 12 12 12 13 12 13 13 16 16 16 17 18 19 20 20 22 24 24 23 23 20 20 20 21 21 21 22 23 19 14 13 13 12
11 11 12 11 11 11 11 11 12 13 13 12 12 15 15 15 18 18 19 19 19 18 19 20 22 22 23 24 25 24 23 21 22 21 22 23 23 23 22 23 24 22 17 15
11 11 9 11 11 12 12 14 15 14 14 16 18 17 17 18 19 18 20 20 19 19 22 23 24 23 25 25 23 23 22 22 22 22 22 22 22 22 23 23 24 24 22 19
12 12 12 12 11 13 14 17 16 14 16 17 18 19 18 19 20 22 23 24 23 23 25 26 25 24 26 25 23 24 23 22 22 25 25 26 24 24 24 24 25 25 24 22
15 16 19 17 13 13 14 14 13 14 17 17 18 20 22 24 26 28 31 31 30 29 29 28 25 27 29 27 25 23 25 27 25 28 28 28 27 26 25 26 26 25 24 23
10 10 13 13 13 14 15 16 18 19 21 20 22 23 25 26 26 29 33 35 32 29 29 28 28 30 31 31 30 28 28 27 28 28 27 27 27 26 26 26 26 24 24 24
14 12 16 16 18 18 19 20 22 23 23 23 24 25 27 28 29 33 37 35 34 33 28 33 22 26 32 31 26 26 26 27 29 31 29 28 28 29 28 27 25 25 26 26
21 20 20 23 24 24 24 25 25 27 29 27 28 29 31 35 37 36 39 33 32 29 32 32 33 32 29 30 23 27 28 27 27 29 30 29 28 27 26 24 24 26 30 30
24 23 24 25 27 27 27 27 27 28 30 29 27 29 31 37 38 36 35 31 30 33 33 30 33 30 29 26 25 31 33 31 30 29 28 26 26 25 24 25 26 29 29 30
29 27 27 27 28 31 32 31 29 29 30 30 32 32 31 33 34 36 34 30 30 28 30 29 29 27 26 22 22 23 23 24 24 25 26 26 26 24 24 25 27 28 29 31
29 29 27 28 28 32 34 32 31 29 29 29 29 29 28 27 28 29 28 30 32 31 27 26 24 21 19 19 20 22 23 23 23 23 23 23 23 24 25 27 29 29 31 32
31 29 32 32 30 31 30 33 29 31 30 32 33 32 29 28 30 31 30 28 27 26 26 25 23 15 18 24 22 22 22 22 22 22 23 22 23 25 28 29 30 30 31 32
33 32 30 31 27 28 27 28 28 29 28 29 31 32 32 29 29 31 32 28 24 23 25 23 17 17 24 23 23 22 22 22 23 23 24 24 26 28 29 30 31 31 31 32
27 27 27 26 26 27 27 27 26 27 26 27 27 32 34 34 31 29 29 26 26 24 26 26 25 22 22 21 22 22 22 22 22 23 23 25 26 27 29 29 30 30 31 32
29 28 30 29 29 27 27 26 26 26 29 32 31 33 33 33 31 27 26 26 26 26 26 26 23 22 23 23 23 23 23 23 23 24 25 26 27 28 28 28 29 30 31 31

GFSNGP_con_lsi_033.txt.gz
Lid_Strength_Index
16 16 16 16 17 17 17 15 17 15 16 14 14 14 13 14 15 15 14 14 14 14 15 15 15 15 14 14 14 13 13 13 13 13 14 14 15 16 16 16 16 17 17 17
18 17 17 18 17 16 16 15 15 16 17 13 13 14 14 14 14 14 14 13 13 14 14 15 14 14 14 13 13 13 12 12 13 13 14 15 16 16 16 17 17 17 17 17
17 19 18 18 18 17 17 16 14 17 13 16 15 15 14 14 14 14 14 14 13 13 13 13 13 12 12 12 13 13 13 14 15 15 15 16 17 17 18 18 17 17 17 17
23 20 22 19 21 17 16 16 17 18 19 16 14 15 15 15 14 15 14 13 12 12 12 12 12 12 12 12 13 13 14 15 16 16 17 18 18 18 18 18 18 17 17 17
21 21 19 20 21 18 17 18 17 15 16 17 17 18 18 16 15 14 14 13 13 12 12 13 13 13 13 14 14 14 14 15 16 17 18 18 19 18 18 18 18 18 17 18
22 22 22 20 19 19 18 21 20 16 17 19 19 21 18 17 16 15 15 14 13 13 13 13 13 13 14 14 15 15 14 15 16 17 19 19 18 18 18 19 18 18 18 18
20 20 19 18 19 18 20 18 19 19 18 18 19 17 16 16 16 15 14 13 13 13 13 13 13 14 14 15 15 14 16 16 17 17 18 18 19 19 20 20 19 21 20 20
20 21 21 18 18 18 16 17 17 17 17 17 16 16 15 15 14 13 13 13 12 13 13 13 14 15 15 15 15 16 16 17 18 20 18 19 22 21 22 22 22 22 22 21
17 18 17 16 16 15 15 16 16 16 16 15 16 15 15 14 14 13 13 13 13 13 13 13 15 14 14 14 16 17 18 20 21 21 20 20 22 21 20 21 22 21 20 20
18 19 18 16 15 15 14 15 15 14 14 15 14 14 14 14 14 13 14 14 14 15 15 14 16 15 14 16 17 19 21 21 21 21 20 21 19 19 21 21 21 20 20 20
20 18 17 16 14 13 13 14 14 14 13 13 13 14 14 14 14 14 14 14 16 15 14 13 16 16 18 18 19 20 21 20 20 21 21 19 19 18 18 18 19 22 20 19
20 16 15 14 12 12 12 12 13 13 14 14 13 13 13 14 14 14 14 16 16 15 15 16 18 19 19 20 19 20 20 20 20 20 19 19 19 19 16 13 12 11 9 10
14 13 12 11 11 11 12 12 12 13 13 13 13 13 14 14 15 15 17 17 17 15 17 19 19 19 20 20 20 20 21 20 20 19 19 19 20 20 21 18 15 13 11 10
12 12 13 12 12 12 12 12 13 14 14 14 13 16 15 16 19 19 19 19 20 21 22 23 22 20 21 22 23 24 24 20 21 20 20 21 21 21 21 22 23 21 17 14
12 11 11 11 13 13 14 15 16 15 15 16 18 16 17 18 20 19 22 22 21 23 24 23 24 25 27 26 25 26 24 23 22 22 22 21 21 21 22 22 22 22 21 19
13 13 14 13 13 14 15 17 15 13 15 17 18 19 18 19 22 24 25 27 23 24 28 27 26 26 28 27 27 27 26 21 22 23 23 22 22 22 22 22 23 23 22 22
15 16 20 17 14 14 14 13 12 13 16 16 17 20 22 25 27 29 33 33 30 29 30 28 27 29 31 29 28 27 27 27 24 26 26 25 24 23 22 23 24 24 23 20
11 12 13 13 13 13 15 14 15 17 18 19 21 23 25 25 25 29 33 35 32 31 32 32 32 32 33 33 31 29 29 28 29 29 26 25 25 24 24 24 24 24 22 21
15 13 15 15 17 17 19 20 22 22 22 23 23 25 26 27 28 32 35 32 33 31 29 34 22 31 32 32 30 29 28 30 29 28 26 25 25 25 25 26 25 25 23 22
22 22 20 23 24 25 25 26 25 26 28 27 27 28 31 36 35 34 38 32 33 30 34 35 35 33 33 32 26 29 30 28 27 28 28 28 27 25 26 26 26 25 25 24
27 25 24 25 27 28 28 28 26 28 30 29 27 29 31 38 38 37 30 28 30 35 34 29 32 30 31 30 29 32 32 30 28 27 28 28 28 26 25 26 25 24 23 23
31 29 27 28 29 32 32 31 29 30 29 30 30 31 32 32 35 35 33 28 30 27 30 31 31 30 29 26 27 28 28 27 26 23 24 24 24 23 23 23 23 23 23 25
32 31 29 29 30 33 32 31 30 29 30 30 30 31 27 25 26 24 27 30 31 29 29 29 27 23 21 23 25 26 25 26 25 22 22 22 22 22 22 23 23 23 25 27
35 33 34 34 33 30 30 33 34 33 32 30 29 26 24 24 26 29 29 27 26 26 29 28 25 16 21 27 28 27 28 26 22 22 21 21 21 22 23 24 24 25 27 28
34 35 34 32 30 30 32 33 28 26 26 27 27 27 27 26 26 27 30 28 25 26 28 25 18 18 28 29 29 27 26 23 22 22 22 23 23 24 24 25 27 28 28 28
33 32 31 30 28 27 26 25 26 26 25 26 27 29 31 31 28 28 28 27 28 27 28 28 28 28 28 27 27 26 24 24 23 22 23 23 23 24 25 26 27 28 28 28
29 27 28 27 27 29 29 29 29 28 28 30 30 32 32 32 31 28 28 28 27 27 27 29 27 25 27 27 25 25 24 23 23 23 23 24 24 25 26 27 27 27 28 29